This is the latest recevied weather packets stored in our database for station/object N6RDS. If no packets are shown the sender has not sent any weather packets the latest 10 day(s).
| Time | Temp. | Humidity | Pressure | Rain* | Wind** | Luminosity | Snow |
|---|---|---|---|---|---|---|---|
| 1788137935 | 73° F | 56% | 771.8 mmHg | 0 in | - | 31 W/m² | - |
| 1788137630 | 73° F | 57% | 771.5 mmHg | 0 in | - | 36 W/m² | - |
| 1788137325 | 73° F | 56% | 771.8 mmHg | 0 in | - | 42 W/m² | - |
| 1788137022 | 73° F | 56% | 771.6 mmHg | 0 in | - | 45 W/m² | - |
| 1788136717 | 73° F | 56% | 771.6 mmHg | 0 in | - | 46 W/m² | - |
| 1788136408 | 74° F | 55% | 771.8 mmHg | 0 in | - | 42 W/m² | - |
| 1788136107 | 74° F | 54% | 771.7 mmHg | 0 in | - | 40 W/m² | - |
| 1788135806 | 74° F | 54% | 771.7 mmHg | 0 in | - | 43 W/m² | - |
| 1788135502 | 74° F | 53% | 771.5 mmHg | 0 in | - | 42 W/m² | - |
| 1788135197 | 74° F | 53% | 771.6 mmHg | 0 in | - | 40 W/m² | - |
| 1788134895 | 74° F | 53% | 771.8 mmHg | 0 in | - | 39 W/m² | - |
| 1788134595 | 74° F | 52% | 771.6 mmHg | 0 in | - | 40 W/m² | - |
| 1788134293 | 75° F | 51% | 771.5 mmHg | 0 in | - | 41 W/m² | - |
| 1788133988 | 75° F | 52% | 771.6 mmHg | 0 in | - | 38 W/m² | - |
| 1788133683 | 76° F | 50% | 771.5 mmHg | 0 in | - | 39 W/m² | - |
| 1788133379 | 76° F | 50% | 771.6 mmHg | 0 in | - | 42 W/m² | - |
| 1788133074 | 75° F | 51% | 771.9 mmHg | 0 in | - | 50 W/m² | - |
| 1788132769 | 76° F | 50% | 771.9 mmHg | 0 in | - | 55 W/m² | - |
| 1788132465 | 77° F | 50% | 771.9 mmHg | 0 in | - | 57 W/m² | - |
| 1788132161 | 77° F | 50% | 771.9 mmHg | 0 in | - | 54 W/m² | - |
| 1788131857 | 77° F | 50% | 772 mmHg | 0 in | - | 68 W/m² | - |
| 1788131551 | 78° F | 49% | 772 mmHg | 0 in | - | 81 W/m² | - |
| 1788131246 | 77° F | 48% | 772 mmHg | 0 in | - | 124 W/m² | - |
| 1788130941 | 76° F | 50% | 772 mmHg | 0 in | - | 70 W/m² | - |
| 1788130640 | 76° F | 50% | 772 mmHg | 0 in | - | 51 W/m² | - |
* Rain latest hour (hover to see other rain measurements)
** Current wind speed in m/s (hover to see current wind gust speed)